Time,TemperatureF,DewpointF,PressureIn,WindDirection,WindDirectionDegrees,WindSpeedMPH,WindSpeedGustMPH,Humidity,HourlyPrecipIn,Conditions,Clouds,dailyrainin,SoftwareType,DateUTC
2013-03-13 00:00:00,44.3,39.5,30.19,NW,325,0.0,0.0,83,0.00,,---,0.00,VWS V14.01,2013-03-13 05:00:00,
2013-03-13 00:05:00,45.4,39.3,30.18,NW,307,0.0,0.0,79,0.00,,---,0.00,VWS V14.01,2013-03-13 05:05:00,
2013-03-13 00:10:00,46.2,39.7,30.18,NW,307,0.0,0.0,78,0.00,,---,0.00,VWS V14.01,2013-03-13 05:10:00,
2013-03-13 00:15:00,45.8,40.0,30.19,NW,307,0.0,0.0,80,0.00,,---,0.00,VWS V14.01,2013-03-13 05:15:00,
2013-03-13 00:20:00,45.0,39.5,30.19,NW,307,0.0,0.0,81,0.00,,---,0.00,VWS V14.01,2013-03-13 05:20:00,
2013-03-13 00:25:00,44.4,39.3,30.19,NW,307,0.0,0.0,82,0.00,,---,0.00,VWS V14.01,2013-03-13 05:25:00,
2013-03-13 00:30:00,44.0,39.5,30.19,NW,307,0.0,0.0,84,0.00,,---,0.00,VWS V14.01,2013-03-13 05:30:00,
2013-03-13 00:35:00,43.7,39.2,30.19,NW,307,0.0,0.0,84,0.00,,---,0.00,VWS V14.01,2013-03-13 05:35:00,
2013-03-13 00:40:00,43.5,39.3,30.19,NW,307,0.0,0.0,85,0.00,,---,0.00,VWS V14.01,2013-03-13 05:40:00,
2013-03-13 00:45:00,43.2,39.0,30.19,NW,307,0.0,0.0,85,0.00,,---,0.00,VWS V14.01,2013-03-13 05:45:00,
2013-03-13 00:50:00,43.0,39.1,30.19,NW,307,0.0,0.0,86,0.00,,---,0.00,VWS V14.01,2013-03-13 05:50:00,
2013-03-13 00:55:00,42.8,38.9,30.19,NW,307,0.0,0.0,86,0.00,,---,0.00,VWS V14.01,2013-03-13 05:55:00,
2013-03-13 01:00:00,42.5,38.3,30.19,NW,307,0.0,0.0,85,0.00,,---,0.00,VWS V14.01,2013-03-13 06:00:00,
2013-03-13 01:05:00,42.4,38.5,30.20,NW,308,0.0,0.0,86,0.00,,---,0.00,VWS V14.01,2013-03-13 06:05:00,
2013-03-13 01:10:00,42.1,38.2,30.20,NW,307,0.0,0.0,86,0.00,,---,0.00,VWS V14.01,2013-03-13 06:10:00,
2013-03-13 01:15:00,42.0,38.1,30.20,NW,308,0.0,0.0,86,0.00,,---,0.00,VWS V14.01,2013-03-13 06:15:00,
2013-03-13 01:20:00,41.8,37.9,30.20,NW,307,0.0,0.0,86,0.00,,---,0.00,VWS V14.01,2013-03-13 06:20:00,
2013-03-13 01:25:00,41.6,37.7,30.20,NW,307,0.0,0.0,86,0.00,,---,0.00,VWS V14.01,2013-03-13 06:25:00,
2013-03-13 01:30:00,41.5,37.9,30.20,WNW,301,0.0,0.0,87,0.00,,---,0.00,VWS V14.01,2013-03-13 06:30:00,
2013-03-13 01:35:00,41.7,38.1,30.20,WNW,301,0.0,1.0,87,0.00,,---,0.00,VWS V14.01,2013-03-13 06:35:00,
2013-03-13 01:40:00,42.0,38.1,30.20,WNW,301,0.0,1.0,86,0.00,,---,0.00,VWS V14.01,2013-03-13 06:40:00,
2013-03-13 01:45:00,42.4,38.2,30.21,WNW,301,0.0,1.0,85,0.00,,---,0.00,VWS V14.01,2013-03-13 06:45:00,
2013-03-13 01:50:00,42.5,38.3,30.21,WNW,301,0.0,1.0,85,0.00,,---,0.00,VWS V14.01,2013-03-13 06:50:00,
2013-03-13 01:55:00,42.3,38.1,30.21,WNW,301,0.0,1.0,85,0.00,,---,0.00,VWS V14.01,2013-03-13 06:55:00,
2013-03-13 02:00:00,42.0,38.1,30.21,WNW,301,0.0,0.0,86,0.00,,---,0.00,VWS V14.01,2013-03-13 07:00:00,
2013-03-13 02:05:00,41.9,38.0,30.20,WNW,301,0.0,0.0,86,0.00,,---,0.00,VWS V14.01,2013-03-13 07:05:00,
2013-03-13 02:10:00,42.3,38.1,30.20,WNW,301,0.0,0.0,85,0.00,,---,0.00,VWS V14.01,2013-03-13 07:10:00,
2013-03-13 02:15:00,42.7,37.9,30.20,WNW,301,0.0,0.0,83,0.00,,---,0.00,VWS V14.01,2013-03-13 07:15:00,
2013-03-13 02:20:00,42.8,38.0,30.20,WNW,300,0.0,0.0,83,0.00,,---,0.00,VWS V14.01,2013-03-13 07:20:00,
2013-03-13 02:25:00,42.8,38.3,30.20,WNW,300,0.0,0.0,84,0.00,,---,0.00,VWS V14.01,2013-03-13 07:25:00,
2013-03-13 02:30:00,42.5,38.3,30.20,WNW,301,0.0,0.0,85,0.00,,---,0.00,VWS V14.01,2013-03-13 07:30:00,
2013-03-13 02:35:00,42.1,37.9,30.20,WNW,301,0.0,0.0,85,0.00,,---,0.00,VWS V14.01,2013-03-13 07:35:00,
2013-03-13 02:40:00,41.7,37.8,30.20,WNW,301,0.0,0.0,86,0.00,,---,0.00,VWS V14.01,2013-03-13 07:40:00,
2013-03-13 02:45:00,41.3,37.7,30.20,WNW,300,0.0,0.0,87,0.00,,---,0.00,VWS V14.01,2013-03-13 07:45:00,
2013-03-13 02:50:00,41.1,37.8,30.20,WNW,301,0.0,0.0,88,0.00,,---,0.00,VWS V14.01,2013-03-13 07:50:00,
2013-03-13 02:55:00,40.9,37.6,30.20,WNW,301,0.0,0.0,88,0.00,,---,0.00,VWS V14.01,2013-03-13 07:55:00,
2013-03-13 03:00:00,40.7,37.4,30.20,WNW,301,0.0,0.0,88,0.00,,---,0.00,VWS V14.01,2013-03-13 08:00:00,
2013-03-13 03:05:00,40.5,37.2,30.20,WNW,301,0.0,0.0,88,0.00,,---,0.00,VWS V14.01,2013-03-13 08:05:00,
2013-03-13 03:10:00,40.3,37.0,30.20,WNW,301,0.0,0.0,88,0.00,,---,0.00,VWS V14.01,2013-03-13 08:10:00,
2013-03-13 03:15:00,40.1,37.1,30.21,WNW,301,0.0,0.0,89,0.00,,---,0.00,VWS V14.01,2013-03-13 08:15:00,
2013-03-13 03:20:00,39.8,36.8,30.21,WNW,300,0.0,0.0,89,0.00,,---,0.00,VWS V14.01,2013-03-13 08:20:00,
2013-03-13 03:25:00,39.7,36.7,30.21,WNW,301,0.0,0.0,89,0.00,,---,0.00,VWS V14.01,2013-03-13 08:25:00,
2013-03-13 03:30:00,39.5,36.5,30.21,WNW,301,0.0,0.0,89,0.00,,---,0.00,VWS V14.01,2013-03-13 08:30:00,
2013-03-13 03:35:00,39.4,36.7,30.21,WNW,300,0.0,0.0,90,0.00,,---,0.00,VWS V14.01,2013-03-13 08:35:00,
2013-03-13 03:40:00,39.2,36.5,30.21,WNW,300,0.0,0.0,90,0.00,,---,0.00,VWS V14.01,2013-03-13 08:40:00,
2013-03-13 03:45:00,39.1,36.7,30.21,WNW,300,0.0,0.0,91,0.00,,---,0.00,VWS V14.01,2013-03-13 08:45:00,
2013-03-13 03:50:00,38.9,36.5,30.21,WNW,301,0.0,0.0,91,0.00,,---,0.00,VWS V14.01,2013-03-13 08:50:00,
2013-03-13 03:55:00,38.8,36.4,30.21,WNW,301,0.0,0.0,91,0.00,,---,0.00,VWS V14.01,2013-03-13 08:55:00,
2013-03-13 04:00:00,38.7,36.6,30.21,WNW,300,0.0,0.0,92,0.00,,---,0.00,VWS V14.01,2013-03-13 09:00:00,
2013-03-13 04:05:00,38.5,36.4,30.21,WNW,300,0.0,0.0,92,0.00,,---,0.00,VWS V14.01,2013-03-13 09:05:00,
2013-03-13 04:10:00,38.4,36.3,30.22,WNW,300,0.0,0.0,92,0.00,,---,0.00,VWS V14.01,2013-03-13 09:10:00,
2013-03-13 04:15:00,38.3,36.2,30.22,WNW,301,0.0,0.0,92,0.00,,---,0.00,VWS V14.01,2013-03-13 09:15:00,
2013-03-13 04:20:00,38.1,36.0,30.22,WNW,301,0.0,0.0,92,0.00,,---,0.00,VWS V14.01,2013-03-13 09:20:00,
2013-03-13 04:25:00,38.0,35.9,30.22,WNW,301,0.0,0.0,92,0.00,,---,0.00,VWS V14.01,2013-03-13 09:25:00,
2013-03-13 04:30:00,37.9,35.8,30.22,WNW,301,0.0,0.0,92,0.00,,---,0.00,VWS V14.01,2013-03-13 09:30:00,
2013-03-13 04:35:00,37.7,35.9,30.22,WNW,300,0.0,0.0,93,0.00,,---,0.00,VWS V14.01,2013-03-13 09:35:00,
2013-03-13 04:40:00,37.6,35.8,30.22,WNW,300,0.0,0.0,93,0.00,,---,0.00,VWS V14.01,2013-03-13 09:40:00,
2013-03-13 04:45:00,37.5,35.7,30.22,WNW,301,0.0,0.0,93,0.00,,---,0.00,VWS V14.01,2013-03-13 09:45:00,
2013-03-13 04:50:00,37.4,35.6,30.23,WNW,301,0.0,0.0,93,0.00,,---,0.00,VWS V14.01,2013-03-13 09:50:00,
2013-03-13 04:55:00,37.3,35.5,30.23,WNW,301,0.0,0.0,93,0.00,,---,0.00,VWS V14.01,2013-03-13 09:55:00,
2013-03-13 05:00:00,37.2,35.4,30.23,WNW,300,0.0,0.0,93,0.00,,---,0.00,VWS V14.01,2013-03-13 10:00:00,
2013-03-13 05:05:00,37.1,35.3,30.23,WNW,300,0.0,1.0,93,0.00,,---,0.00,VWS V14.01,2013-03-13 10:05:00,
2013-03-13 05:10:00,37.2,35.6,30.23,WNW,300,0.0,1.0,94,0.00,,---,0.00,VWS V14.01,2013-03-13 10:10:00,
2013-03-13 05:15:00,37.3,35.5,30.23,WNW,300,0.0,1.0,93,0.00,,---,0.00,VWS V14.01,2013-03-13 10:15:00,
2013-03-13 05:19:00,37.3,35.5,30.24,WNW,300,0.0,1.0,93,0.00,,---,0.00,VWS V14.01,2013-03-13 10:19:00,
2013-03-13 05:24:00,37.3,35.5,30.24,WNW,301,0.0,1.0,93,0.00,,---,0.00,VWS V14.01,2013-03-13 10:24:00,
2013-03-13 05:29:00,37.2,35.4,30.24,WNW,300,0.0,0.0,93,0.00,,---,0.00,VWS V14.01,2013-03-13 10:29:00,
2013-03-13 05:30:00,37.2,35.4,30.24,WNW,300,0.0,1.0,93,0.00,,---,0.00,VWS V14.01,2013-03-13 10:30:00,
2013-03-13 05:34:00,37.0,35.2,30.24,WNW,301,0.0,0.0,93,0.00,,---,0.00,VWS V14.01,2013-03-13 10:34:00,
2013-03-13 05:39:00,36.9,35.1,30.24,WNW,300,0.0,0.0,93,0.00,,---,0.00,VWS V14.01,2013-03-13 10:39:00,
2013-03-13 05:44:00,36.9,35.3,30.24,WNW,300,0.0,1.0,94,0.00,,---,0.00,VWS V14.01,2013-03-13 10:44:00,
2013-03-13 05:49:00,36.8,35.2,30.25,WNW,300,0.0,1.0,94,0.00,,---,0.00,VWS V14.01,2013-03-13 10:49:00,
2013-03-13 05:54:00,36.7,35.1,30.25,WNW,300,0.0,1.0,94,0.00,,---,0.00,VWS V14.01,2013-03-13 10:54:00,
2013-03-13 05:59:00,36.7,35.1,30.25,WNW,300,0.0,0.0,94,0.00,,---,0.00,VWS V14.01,2013-03-13 10:59:00,
2013-03-13 06:00:00,36.7,35.1,30.25,WNW,301,0.0,1.0,94,0.00,,---,0.00,VWS V14.01,2013-03-13 11:00:00,
2013-03-13 06:04:00,36.5,34.9,30.25,WNW,301,0.0,0.0,94,0.00,,---,0.00,VWS V14.01,2013-03-13 11:04:00,
2013-03-13 06:09:00,36.5,34.9,30.26,WNW,300,0.0,0.0,94,0.00,,---,0.00,VWS V14.01,2013-03-13 11:09:00,
2013-03-13 06:14:00,36.5,34.9,30.26,WNW,300,0.0,0.0,94,0.00,,---,0.00,VWS V14.01,2013-03-13 11:14:00,
2013-03-13 06:19:00,36.7,35.4,30.26,WNW,300,0.0,0.0,95,0.00,,---,0.00,VWS V14.01,2013-03-13 11:19:00,
2013-03-13 06:24:00,37.2,35.6,30.27,WNW,301,0.0,0.0,94,0.00,,---,0.00,VWS V14.01,2013-03-13 11:24:00,
2013-03-13 06:29:00,38.1,36.0,30.27,WNW,288,0.0,0.0,92,0.00,,---,0.00,VWS V14.01,2013-03-13 11:29:00,
2013-03-13 06:30:00,38.0,36.2,30.27,WNW,288,0.0,1.0,93,0.00,,---,0.00,VWS V14.01,2013-03-13 11:30:00,
2013-03-13 06:34:00,38.7,36.0,30.27,WNW,288,0.0,1.0,90,0.00,,---,0.00,VWS V14.01,2013-03-13 11:34:00,
2013-03-13 06:39:00,39.3,36.0,30.27,West,280,0.0,1.0,88,0.00,,---,0.00,VWS V14.01,2013-03-13 11:39:00,
2013-03-13 06:44:00,40.3,36.5,30.27,WSW,238,0.0,2.0,86,0.00,,---,0.00,VWS V14.01,2013-03-13 11:44:00,
2013-03-13 06:49:00,40.6,36.5,30.27,WSW,242,0.0,2.0,85,0.00,,---,0.00,VWS V14.01,2013-03-13 11:49:00,
2013-03-13 06:54:00,40.8,36.3,30.27,WSW,248,0.0,2.0,84,0.00,,---,0.00,VWS V14.01,2013-03-13 11:54:00,
2013-03-13 06:59:00,40.7,36.2,30.27,WSW,248,0.0,0.0,84,0.00,,---,0.00,VWS V14.01,2013-03-13 11:59:00,
2013-03-13 07:00:00,40.7,36.2,30.27,WSW,248,0.0,2.0,84,0.00,,---,0.00,VWS V14.01,2013-03-13 12:00:00,
2013-03-13 07:04:00,40.3,36.2,30.27,WSW,248,0.0,0.0,85,0.00,,---,0.00,VWS V14.01,2013-03-13 12:04:00,
2013-03-13 07:09:00,39.7,35.9,30.28,WSW,248,0.0,0.0,86,0.00,,---,0.00,VWS V14.01,2013-03-13 12:09:00,
2013-03-13 07:14:00,39.1,35.6,30.28,WSW,248,0.0,0.0,87,0.00,,---,0.00,VWS V14.01,2013-03-13 12:14:00,
2013-03-13 07:19:00,38.7,35.5,30.28,WSW,248,0.0,0.0,88,0.00,,---,0.00,VWS V14.01,2013-03-13 12:19:00,
2013-03-13 07:24:00,38.4,35.5,30.29,WSW,248,0.0,0.0,89,0.00,,---,0.00,VWS V14.01,2013-03-13 12:24:00,
2013-03-13 07:29:00,38.2,35.5,30.29,WSW,248,0.0,0.0,90,0.00,,---,0.00,VWS V14.01,2013-03-13 12:29:00,
2013-03-13 07:30:00,38.2,35.5,30.29,WSW,248,0.0,1.0,90,0.00,,---,0.00,VWS V14.01,2013-03-13 12:30:00,
2013-03-13 07:34:00,38.4,35.7,30.29,WSW,248,0.0,1.0,90,0.00,,---,0.00,VWS V14.01,2013-03-13 12:34:00,
2013-03-13 07:39:00,39.3,36.6,30.29,NW,305,1.0,3.0,90,0.00,,---,0.00,VWS V14.01,2013-03-13 12:39:00,
2013-03-13 07:44:00,40.9,37.3,30.29,West,262,0.0,3.0,87,0.00,,---,0.00,VWS V14.01,2013-03-13 12:44:00,
2013-03-13 07:49:00,42.2,38.3,30.30,NW,314,2.0,3.0,86,0.00,,---,0.00,VWS V14.01,2013-03-13 12:49:00,
2013-03-13 07:54:00,43.1,38.3,30.30,West,266,0.0,3.0,83,0.00,,---,0.00,VWS V14.01,2013-03-13 12:54:00,
2013-03-13 07:59:00,43.6,38.8,30.30,West,266,0.0,0.0,83,0.00,,---,0.00,VWS V14.01,2013-03-13 12:59:00,
2013-03-13 08:00:00,43.5,38.7,30.30,West,266,0.0,3.0,83,0.00,,---,0.00,VWS V14.01,2013-03-13 13:00:00,
2013-03-13 08:04:00,44.0,38.5,30.30,West,266,0.0,1.0,81,0.00,,---,0.00,VWS V14.01,2013-03-13 13:04:00,
2013-03-13 08:09:00,44.8,38.4,30.30,West,266,0.0,1.0,78,0.00,,---,0.00,VWS V14.01,2013-03-13 13:09:00,
2013-03-13 08:14:00,46.0,38.9,30.30,West,267,0.0,1.0,76,0.00,,---,0.00,VWS V14.01,2013-03-13 13:14:00,
2013-03-13 08:19:00,47.3,38.4,30.30,NNE,18,3.0,3.0,71,0.00,,---,0.00,VWS V14.01,2013-03-13 13:19:00,
2013-03-13 08:24:00,48.7,38.6,30.31,West,278,1.0,4.0,68,0.00,,---,0.00,VWS V14.01,2013-03-13 13:24:00,
2013-03-13 08:29:00,49.6,38.7,30.31,NNE,20,0.0,0.0,66,0.00,,---,0.00,VWS V14.01,2013-03-13 13:29:00,
2013-03-13 08:30:00,49.6,38.7,30.31,West,271,1.0,4.0,66,0.00,,---,0.00,VWS V14.01,2013-03-13 13:30:00,
2013-03-13 08:34:00,50.3,38.6,30.31,NW,325,0.0,4.0,64,0.00,,---,0.00,VWS V14.01,2013-03-13 13:34:00,
2013-03-13 08:39:00,51.1,38.1,30.31,NW,325,0.0,4.0,61,0.00,,---,0.00,VWS V14.01,2013-03-13 13:39:00,
2013-03-13 08:44:00,52.1,37.8,30.31,NNW,328,1.0,4.0,58,0.00,,---,0.00,VWS V14.01,2013-03-13 13:44:00,
2013-03-13 08:49:00,53.0,39.9,30.31,SSW,213,1.0,4.0,61,0.00,,---,0.00,VWS V14.01,2013-03-13 13:49:00,
2013-03-13 08:54:00,54.3,39.8,30.31,North,5,0.0,4.0,58,0.00,,---,0.00,VWS V14.01,2013-03-13 13:54:00,
2013-03-13 08:59:00,54.8,38.5,30.32,NW,314,0.0,0.0,54,0.00,,---,0.00,VWS V14.01,2013-03-13 13:59:00,
2013-03-13 09:00:00,54.8,38.5,30.32,NW,321,0.0,5.0,54,0.00,,---,0.00,VWS V14.01,2013-03-13 14:00:00,
2013-03-13 09:04:00,55.3,38.5,30.32,WNW,300,0.0,2.0,53,0.00,,---,0.00,VWS V14.01,2013-03-13 14:04:00,
2013-03-13 09:09:00,55.8,38.5,30.32,NNE,12,2.0,4.0,52,0.00,,---,0.00,VWS V14.01,2013-03-13 14:09:00,
2013-03-13 09:14:00,55.9,40.0,30.32,SW,222,0.0,4.0,55,0.00,,---,0.00,VWS V14.01,2013-03-13 14:14:00,
2013-03-13 09:19:00,56.9,40.0,30.32,NNE,29,1.0,4.0,53,0.00,,---,0.00,VWS V14.01,2013-03-13 14:19:00,
2013-03-13 09:24:00,57.0,38.6,30.32,NE,43,0.0,6.0,50,0.00,,---,0.00,VWS V14.01,2013-03-13 14:24:00,
2013-03-13 09:29:00,57.8,39.3,30.32,North,351,4.0,6.0,50,0.00,,---,0.00,VWS V14.01,2013-03-13 14:29:00,
2013-03-13 09:30:00,57.8,39.3,30.32,NNE,26,4.0,6.0,50,0.00,,---,0.00,VWS V14.01,2013-03-13 14:30:00,
2013-03-13 09:34:00,57.6,38.6,30.32,NNW,330,2.0,6.0,49,0.00,,---,0.00,VWS V14.01,2013-03-13 14:34:00,
2013-03-13 09:39:00,58.0,37.9,30.33,NNE,32,2.0,6.0,47,0.00,,---,0.00,VWS V14.01,2013-03-13 14:39:00,
2013-03-13 09:44:00,58.3,38.7,30.33,NNW,328,1.0,7.0,48,0.00,,---,0.00,VWS V14.01,2013-03-13 14:44:00,
2013-03-13 09:49:00,58.3,38.7,30.33,East,84,4.0,12.0,48,0.00,,---,0.00,VWS V14.01,2013-03-13 14:49:00,
2013-03-13 09:54:00,58.0,39.0,30.33,West,266,5.0,13.0,49,0.00,,---,0.00,VWS V14.01,2013-03-13 14:54:00,
2013-03-13 09:59:00,57.7,38.7,30.33,NNW,348,4.0,4.0,49,0.00,,---,0.00,VWS V14.01,2013-03-13 14:59:00,
2013-03-13 10:00:00,57.7,38.7,30.33,NNW,347,4.0,13.0,49,0.00,,---,0.00,VWS V14.01,2013-03-13 15:00:00,
2013-03-13 10:04:00,57.6,38.6,30.33,West,269,2.0,10.0,49,0.00,,---,0.00,VWS V14.01,2013-03-13 15:04:00,
2013-03-13 10:09:00,57.6,38.1,30.34,NNW,339,2.0,11.0,48,0.00,,---,0.00,VWS V14.01,2013-03-13 15:09:00,
2013-03-13 10:14:00,57.8,38.8,30.34,ESE,106,0.0,11.0,49,0.00,,---,0.00,VWS V14.01,2013-03-13 15:14:00,
2013-03-13 10:19:00,58.2,39.7,30.34,ENE,72,1.0,11.0,50,0.00,,---,0.00,VWS V14.01,2013-03-13 15:19:00,
2013-03-13 10:24:00,58.0,38.4,30.34,West,279,1.0,11.0,48,0.00,,---,0.00,VWS V14.01,2013-03-13 15:24:00,
2013-03-13 10:29:00,58.0,39.0,30.34,NNE,25,2.0,2.0,49,0.00,,---,0.00,VWS V14.01,2013-03-13 15:29:00,
2013-03-13 10:30:00,58.0,39.0,30.34,NE,44,1.0,11.0,49,0.00,,---,0.00,VWS V14.01,2013-03-13 15:30:00,
2013-03-13 10:34:00,58.2,38.6,30.34,NW,321,3.0,12.0,48,0.00,,---,0.00,VWS V14.01,2013-03-13 15:34:00,
2013-03-13 10:39:00,58.7,39.1,30.34,NW,323,4.0,12.0,48,0.00,,---,0.00,VWS V14.01,2013-03-13 15:39:00,
2013-03-13 10:44:00,59.2,39.0,30.34,SW,233,1.0,12.0,47,0.00,,---,0.00,VWS V14.01,2013-03-13 15:44:00,
2013-03-13 10:49:00,59.9,39.6,30.34,NNE,20,1.0,12.0,47,0.00,,---,0.00,VWS V14.01,2013-03-13 15:49:00,
2013-03-13 10:54:00,59.8,37.9,30.34,NE,44,4.0,13.0,44,0.00,,---,0.00,VWS V14.01,2013-03-13 15:54:00,
2013-03-13 10:59:00,60.0,39.2,30.34,WNW,291,3.0,3.0,46,0.00,,---,0.00,VWS V14.01,2013-03-13 15:59:00,
2013-03-13 11:00:00,59.9,39.1,30.34,NNW,330,3.0,13.0,46,0.00,,---,0.00,VWS V14.01,2013-03-13 16:00:00,
2013-03-13 11:04:00,60.0,38.0,30.34,WNW,288,3.0,10.0,44,0.00,,---,0.00,VWS V14.01,2013-03-13 16:04:00,
2013-03-13 11:09:00,60.0,38.6,30.34,ENE,58,3.0,10.0,45,0.00,,---,0.00,VWS V14.01,2013-03-13 16:09:00,
2013-03-13 11:14:00,60.0,38.6,30.34,North,11,2.0,10.0,45,0.00,,---,0.00,VWS V14.01,2013-03-13 16:14:00,
2013-03-13 11:19:00,60.5,38.5,30.34,NW,311,4.0,10.0,44,0.00,,---,0.00,VWS V14.01,2013-03-13 16:19:00,
2013-03-13 11:24:00,61.2,36.7,30.34,West,276,3.0,10.0,40,0.00,,---,0.00,VWS V14.01,2013-03-13 16:24:00,
2013-03-13 11:29:00,60.7,37.5,30.34,NNE,18,3.0,12.0,42,0.00,,---,0.00,VWS V14.01,2013-03-13 16:29:00,
2013-03-13 11:30:00,60.7,37.5,30.34,NNE,18,3.0,12.0,42,0.00,,---,0.00,VWS V14.01,2013-03-13 16:30:00,
2013-03-13 11:34:00,60.9,36.4,30.34,ENE,58,3.0,9.0,40,0.00,,---,0.00,VWS V14.01,2013-03-13 16:34:00,
2013-03-13 11:39:00,60.8,35.7,30.34,North,9,12.0,13.0,39,0.00,,---,0.00,VWS V14.01,2013-03-13 16:39:00,
2013-03-13 11:44:00,60.9,34.5,30.34,NNE,27,6.0,13.0,37,0.00,,---,0.00,VWS V14.01,2013-03-13 16:44:00,
2013-03-13 11:49:00,61.0,34.6,30.33,NW,319,1.0,13.0,37,0.00,,---,0.00,VWS V14.01,2013-03-13 16:49:00,
2013-03-13 11:54:00,61.7,34.5,30.33,North,9,5.0,13.0,36,0.00,,---,0.00,VWS V14.01,2013-03-13 16:54:00,
2013-03-13 11:59:00,61.7,35.9,30.33,NE,37,1.0,13.0,38,0.00,,---,0.00,VWS V14.01,2013-03-13 16:59:00,
2013-03-13 12:00:00,61.7,35.9,30.33,NE,37,1.0,13.0,38,0.00,,---,0.00,VWS V14.01,2013-03-13 17:00:00,
2013-03-13 12:04:00,62.4,32.9,30.33,NW,307,4.0,8.0,33,0.00,,---,0.00,VWS V14.01,2013-03-13 17:04:00,
2013-03-13 12:09:00,62.4,31.4,30.33,SW,232,2.0,12.0,31,0.00,,---,0.00,VWS V14.01,2013-03-13 17:09:00,
2013-03-13 12:14:00,62.6,30.8,30.33,WSW,250,2.0,12.0,30,0.00,,---,0.00,VWS V14.01,2013-03-13 17:14:00,
2013-03-13 12:19:00,62.4,28.9,30.33,North,9,5.0,12.0,28,0.00,,---,0.00,VWS V14.01,2013-03-13 17:19:00,
2013-03-13 12:24:00,62.3,29.7,30.33,NNE,30,12.0,12.0,29,0.00,,---,0.00,VWS V14.01,2013-03-13 17:24:00,
2013-03-13 12:29:00,62.3,29.7,30.32,WNW,298,5.0,13.0,29,0.00,,---,0.00,VWS V14.01,2013-03-13 17:29:00,
2013-03-13 12:30:00,62.3,29.7,30.32,WNW,298,5.0,13.0,29,0.00,,---,0.00,VWS V14.01,2013-03-13 17:30:00,
2013-03-13 12:34:00,63.0,31.1,30.32,North,6,9.0,9.0,30,0.00,,---,0.00,VWS V14.01,2013-03-13 17:34:00,
2013-03-13 12:39:00,63.5,29.0,30.32,ENE,75,2.0,12.0,27,0.00,,---,0.00,VWS V14.01,2013-03-13 17:39:00,
2013-03-13 12:44:00,63.8,28.3,30.32,NE,43,3.0,12.0,26,0.00,,---,0.00,VWS V14.01,2013-03-13 17:44:00,
2013-03-13 12:49:00,63.8,27.3,30.31,NNE,32,2.0,12.0,25,0.00,,---,0.00,VWS V14.01,2013-03-13 17:49:00,
2013-03-13 12:54:00,63.6,27.2,30.31,SW,231,1.0,12.0,25,0.00,,---,0.00,VWS V14.01,2013-03-13 17:54:00,
2013-03-13 12:59:00,64.3,26.8,30.31,NNW,328,4.0,12.0,24,0.00,,---,0.00,VWS V14.01,2013-03-13 17:59:00,
2013-03-13 13:00:00,64.3,26.8,30.31,NNW,329,6.0,12.0,24,0.00,,---,0.00,VWS V14.01,2013-03-13 18:00:00,
2013-03-13 13:04:00,64.3,24.7,30.31,SE,141,1.0,10.0,22,0.00,,---,0.00,VWS V14.01,2013-03-13 18:04:00,
2013-03-13 13:09:00,64.3,25.7,30.30,West,270,5.0,10.0,23,0.00,,---,0.00,VWS V14.01,2013-03-13 18:09:00,
2013-03-13 13:14:00,63.9,25.4,30.30,NNW,347,4.0,10.0,23,0.00,,---,0.00,VWS V14.01,2013-03-13 18:14:00,
2013-03-13 13:19:00,64.3,25.7,30.30,WNW,283,9.0,11.0,23,0.00,,---,0.00,VWS V14.01,2013-03-13 18:19:00,
2013-03-13 13:24:00,64.2,23.5,30.29,ENE,75,1.0,11.0,21,0.00,,---,0.00,VWS V14.01,2013-03-13 18:24:00,
2013-03-13 13:29:00,64.4,24.8,30.29,ENE,59,5.0,15.0,22,0.00,,---,0.00,VWS V14.01,2013-03-13 18:29:00,
2013-03-13 13:30:00,64.4,24.8,30.29,WNW,295,5.0,15.0,22,0.00,,---,0.00,VWS V14.01,2013-03-13 18:30:00,
2013-03-13 13:37:00,64.5,23.7,30.28,ENE,66,2.0,2.0,21,0.00,,---,0.00,VWS V14.01,2013-03-13 18:37:00,
2013-03-13 13:42:00,64.1,22.2,30.28,NW,311,7.0,12.0,20,0.00,,---,0.00,VWS V14.01,2013-03-13 18:42:00,
2013-03-13 13:47:00,63.7,21.9,30.28,NW,325,2.0,14.0,20,0.00,,---,0.00,VWS V14.01,2013-03-13 18:47:00,
2013-03-13 13:52:00,63.9,20.9,30.28,NNE,19,7.0,16.0,19,0.00,,---,0.00,VWS V14.01,2013-03-13 18:52:00,
2013-03-13 13:57:00,64.1,22.2,30.28,NNW,347,0.0,16.0,20,0.00,,---,0.00,VWS V14.01,2013-03-13 18:57:00,
2013-03-13 14:00:00,64.3,22.4,30.28,WSW,255,3.0,16.0,20,0.00,,---,0.00,VWS V14.01,2013-03-13 19:00:00,
2013-03-13 14:02:00,64.5,21.4,30.28,NE,34,3.0,10.0,19,0.00,,---,0.00,VWS V14.01,2013-03-13 19:02:00,
2013-03-13 14:07:00,64.8,22.8,30.27,NW,321,5.0,10.0,20,0.00,,---,0.00,VWS V14.01,2013-03-13 19:07:00,
2013-03-13 14:12:00,64.9,22.9,30.27,West,271,0.0,10.0,20,0.00,,---,0.00,VWS V14.01,2013-03-13 19:12:00,
2013-03-13 14:17:00,65.1,21.9,30.27,West,264,3.0,10.0,19,0.00,,---,0.00,VWS V14.01,2013-03-13 19:17:00,
2013-03-13 14:22:00,65.1,21.9,30.27,NE,36,2.0,12.0,19,0.00,,---,0.00,VWS V14.01,2013-03-13 19:22:00,
2013-03-13 14:27:00,64.9,21.7,30.27,NNE,18,4.0,12.0,19,0.00,,---,0.00,VWS V14.01,2013-03-13 19:27:00,
2013-03-13 14:30:00,64.6,21.4,30.27,NNW,328,8.0,12.0,19,0.00,,---,0.00,VWS V14.01,2013-03-13 19:30:00,
2013-03-13 14:32:00,64.5,21.4,30.27,WNW,286,3.0,8.0,19,0.00,,---,0.00,VWS V14.01,2013-03-13 19:32:00,
2013-03-13 14:37:00,64.3,21.2,30.27,NNE,20,5.0,8.0,19,0.00,,---,0.00,VWS V14.01,2013-03-13 19:37:00,
2013-03-13 14:42:00,64.4,21.3,30.27,North,357,6.0,11.0,19,0.00,,---,0.00,VWS V14.01,2013-03-13 19:42:00,
2013-03-13 14:47:00,64.6,22.6,30.27,ESE,122,2.0,11.0,20,0.00,,---,0.00,VWS V14.01,2013-03-13 19:47:00,
2013-03-13 14:52:00,64.8,22.8,30.26,West,260,5.0,11.0,20,0.00,,---,0.00,VWS V14.01,2013-03-13 19:52:00,
2013-03-13 14:57:00,64.5,22.6,30.26,WNW,285,2.0,11.0,20,0.00,,---,0.00,VWS V14.01,2013-03-13 19:57:00,
2013-03-13 15:00:00,64.6,23.8,30.26,East,89,3.0,11.0,21,0.00,,---,0.00,VWS V14.01,2013-03-13 20:00:00,
2013-03-13 15:02:00,64.9,22.9,30.26,SSW,203,1.0,9.0,20,0.00,,---,0.00,VWS V14.01,2013-03-13 20:02:00,
2013-03-13 15:07:00,64.8,22.8,30.26,NNE,18,5.0,10.0,20,0.00,,---,0.00,VWS V14.01,2013-03-13 20:07:00,
2013-03-13 15:12:00,64.7,22.7,30.26,NNW,340,3.0,10.0,20,0.00,,---,0.00,VWS V14.01,2013-03-13 20:12:00,
2013-03-13 15:17:00,64.9,22.9,30.26,NNE,22,5.0,11.0,20,0.00,,---,0.00,VWS V14.01,2013-03-13 20:17:00,
2013-03-13 15:22:00,64.9,21.7,30.26,SE,126,1.0,11.0,19,0.00,,---,0.00,VWS V14.01,2013-03-13 20:22:00,
2013-03-13 15:27:00,64.9,22.9,30.26,NNE,20,5.0,11.0,20,0.00,,---,0.00,VWS V14.01,2013-03-13 20:27:00,
2013-03-13 15:30:00,64.8,22.8,30.26,SW,219,2.0,12.0,20,0.00,,---,0.00,VWS V14.01,2013-03-13 20:30:00,
2013-03-13 15:32:00,64.7,22.7,30.25,NNW,342,5.0,9.0,20,0.00,,---,0.00,VWS V14.01,2013-03-13 20:32:00,
2013-03-13 15:37:00,65.0,23.0,30.25,NE,37,3.0,9.0,20,0.00,,---,0.00,VWS V14.01,2013-03-13 20:37:00,
2013-03-13 15:42:00,65.0,23.0,30.25,NNW,341,9.0,11.0,20,0.00,,---,0.00,VWS V14.01,2013-03-13 20:42:00,
2013-03-13 15:47:00,64.9,22.9,30.25,NE,41,6.0,11.0,20,0.00,,---,0.00,VWS V14.01,2013-03-13 20:47:00,
2013-03-13 15:52:00,64.7,22.7,30.25,WNW,285,2.0,13.0,20,0.00,,---,0.00,VWS V14.01,2013-03-13 20:52:00,
2013-03-13 15:57:00,64.8,22.8,30.25,SW,229,2.0,13.0,20,0.00,,---,0.00,VWS V14.01,2013-03-13 20:57:00,
2013-03-13 16:00:00,64.8,22.8,30.25,NNW,334,3.0,13.0,20,0.00,,---,0.00,VWS V14.01,2013-03-13 21:00:00,
2013-03-13 16:02:00,64.7,21.5,30.25,NNW,330,2.0,7.0,19,0.00,,---,0.00,VWS V14.01,2013-03-13 21:02:00,
2013-03-13 16:07:00,64.7,22.7,30.25,SW,224,3.0,9.0,20,0.00,,---,0.00,VWS V14.01,2013-03-13 21:07:00,
2013-03-13 16:12:00,64.7,22.7,30.25,ENE,63,3.0,9.0,20,0.00,,---,0.00,VWS V14.01,2013-03-13 21:12:00,
2013-03-13 16:17:00,64.7,23.9,30.25,WNW,285,2.0,9.0,21,0.00,,---,0.00,VWS V14.01,2013-03-13 21:17:00,
2013-03-13 16:22:00,64.6,22.6,30.25,NW,318,5.0,10.0,20,0.00,,---,0.00,VWS V14.01,2013-03-13 21:22:00,
2013-03-13 16:27:00,64.4,21.3,30.25,NNE,22,2.0,10.0,19,0.00,,---,0.00,VWS V14.01,2013-03-13 21:27:00,
2013-03-13 16:30:00,64.2,21.1,30.25,North,358,3.0,12.0,19,0.00,,---,0.00,VWS V14.01,2013-03-13 21:30:00,
2013-03-13 16:32:00,64.0,22.1,30.25,SSW,204,1.0,13.0,20,0.00,,---,0.00,VWS V14.01,2013-03-13 21:32:00,
2013-03-13 16:37:00,64.0,22.1,30.25,North,8,15.0,15.0,20,0.00,,---,0.00,VWS V14.01,2013-03-13 21:37:00,
2013-03-13 16:42:00,63.7,23.1,30.25,North,5,3.0,15.0,21,0.00,,---,0.00,VWS V14.01,2013-03-13 21:42:00,
2013-03-13 16:47:00,64.0,22.1,30.25,NE,37,4.0,15.0,20,0.00,,---,0.00,VWS V14.01,2013-03-13 21:47:00,
2013-03-13 16:52:00,64.0,23.3,30.25,East,79,2.0,15.0,21,0.00,,---,0.00,VWS V14.01,2013-03-13 21:52:00,
2013-03-13 16:57:00,63.9,23.2,30.25,NE,50,1.0,15.0,21,0.00,,---,0.00,VWS V14.01,2013-03-13 21:57:00,
2013-03-13 17:00:00,63.9,22.1,30.25,NW,309,5.0,15.0,20,0.00,,---,0.00,VWS V14.01,2013-03-13 22:00:00,
2013-03-13 17:02:00,63.8,22.0,30.25,WNW,286,4.0,7.0,20,0.00,,---,0.00,VWS V14.01,2013-03-13 22:02:00,
2013-03-13 17:07:00,63.5,22.9,30.25,NE,41,2.0,12.0,21,0.00,,---,0.00,VWS V14.01,2013-03-13 22:07:00,
2013-03-13 17:12:00,63.5,24.0,30.25,NE,36,1.0,12.0,22,0.00,,---,0.00,VWS V14.01,2013-03-13 22:12:00,
2013-03-13 17:17:00,63.4,22.8,30.25,ESE,108,0.0,12.0,21,0.00,,---,0.00,VWS V14.01,2013-03-13 22:17:00,
2013-03-13 17:22:00,63.4,23.9,30.25,WNW,298,4.0,12.0,22,0.00,,---,0.00,VWS V14.01,2013-03-13 22:22:00,
2013-03-13 17:27:00,63.2,23.8,30.25,NNW,335,1.0,12.0,22,0.00,,---,0.00,VWS V14.01,2013-03-13 22:27:00,
2013-03-13 17:30:00,63.2,23.8,30.25,North,5,2.0,12.0,22,0.00,,---,0.00,VWS V14.01,2013-03-13 22:30:00,
2013-03-13 17:32:00,63.1,23.7,30.26,NW,311,2.0,7.0,22,0.00,,---,0.00,VWS V14.01,2013-03-13 22:32:00,
2013-03-13 17:37:00,62.8,23.4,30.26,NNW,337,1.0,14.0,22,0.00,,---,0.00,VWS V14.01,2013-03-13 22:37:00,
2013-03-13 17:42:00,62.6,23.2,30.26,NNW,336,1.0,14.0,22,0.00,,---,0.00,VWS V14.01,2013-03-13 22:42:00,
2013-03-13 17:47:00,62.4,23.1,30.26,NNE,29,6.0,14.0,22,0.00,,---,0.00,VWS V14.01,2013-03-13 22:47:00,
2013-03-13 17:52:00,62.2,24.0,30.26,West,272,0.0,14.0,23,0.00,,---,0.00,VWS V14.01,2013-03-13 22:52:00,
2013-03-13 17:57:00,62.1,23.9,30.26,NNW,339,0.0,14.0,23,0.00,,---,0.00,VWS V14.01,2013-03-13 22:57:00,
2013-03-13 18:00:00,62.0,23.8,30.26,NNE,27,3.0,14.0,23,0.00,,---,0.00,VWS V14.01,2013-03-13 23:00:00,
2013-03-13 18:02:00,61.9,23.7,30.26,WNW,295,1.0,6.0,23,0.00,,---,0.00,VWS V14.01,2013-03-13 23:02:00,
2013-03-13 18:07:00,61.7,23.5,30.26,West,259,1.0,7.0,23,0.00,,---,0.00,VWS V14.01,2013-03-13 23:07:00,
2013-03-13 18:12:00,61.5,24.4,30.26,North,5,3.0,7.0,24,0.00,,---,0.00,VWS V14.01,2013-03-13 23:12:00,
2013-03-13 18:17:00,61.3,24.2,30.27,ENE,75,1.0,7.0,24,0.00,,---,0.00,VWS V14.01,2013-03-13 23:17:00,
2013-03-13 18:22:00,61.0,24.0,30.27,NE,56,0.0,9.0,24,0.00,,---,0.00,VWS V14.01,2013-03-13 23:22:00,
2013-03-13 18:27:00,60.7,23.7,30.27,NE,47,2.0,10.0,24,0.00,,---,0.00,VWS V14.01,2013-03-13 23:27:00,
2013-03-13 18:30:00,60.6,23.6,30.27,NNE,27,4.0,10.0,24,0.00,,---,0.00,VWS V14.01,2013-03-13 23:30:00,
2013-03-13 18:32:00,60.5,24.5,30.27,NNE,31,2.0,5.0,25,0.00,,---,0.00,VWS V14.01,2013-03-13 23:32:00,
2013-03-13 18:37:00,60.2,25.2,30.27,NNE,23,0.0,5.0,26,0.00,,---,0.00,VWS V14.01,2013-03-13 23:37:00,
2013-03-13 18:42:00,59.9,25.0,30.27,NE,36,1.0,5.0,26,0.00,,---,0.00,VWS V14.01,2013-03-13 23:42:00,
2013-03-13 18:47:00,59.6,23.8,30.27,NNW,330,2.0,10.0,25,0.00,,---,0.00,VWS V14.01,2013-03-13 23:47:00,
2013-03-13 18:52:00,59.3,24.4,30.27,NW,323,2.0,10.0,26,0.00,,---,0.00,VWS V14.01,2013-03-13 23:52:00,
2013-03-13 18:57:00,59.0,24.2,30.28,NNW,333,0.0,10.0,26,0.00,,---,0.00,VWS V14.01,2013-03-13 23:57:00,
2013-03-13 19:00:00,58.9,24.1,30.28,North,8,0.0,10.0,26,0.00,,---,0.00,VWS V14.01,2013-03-14 00:00:00,
2013-03-13 19:02:00,58.7,23.9,30.28,NNW,347,1.0,2.0,26,0.00,,---,0.00,VWS V14.01,2013-03-14 00:02:00,
2013-03-13 19:08:00,58.3,24.5,30.28,NE,37,3.0,3.0,27,0.00,,---,0.00,VWS V14.01,2013-03-14 00:08:00,
2013-03-13 19:13:00,57.9,25.9,30.29,North,358,0.0,4.0,29,0.00,,---,0.00,VWS V14.01,2013-03-14 00:13:00,
2013-03-13 19:18:00,57.4,25.4,30.28,NNE,15,0.0,4.0,29,0.00,,---,0.00,VWS V14.01,2013-03-14 00:18:00,
2013-03-13 19:23:00,56.9,25.8,30.29,NNW,328,0.0,4.0,30,0.00,,---,0.00,VWS V14.01,2013-03-14 00:23:00,
2013-03-13 19:28:00,56.5,25.5,30.29,NW,322,0.0,4.0,30,0.00,,---,0.00,VWS V14.01,2013-03-14 00:28:00,
2013-03-13 19:30:00,56.4,25.4,30.29,NW,322,0.0,4.0,30,0.00,,---,0.00,VWS V14.01,2013-03-14 00:30:00,
2013-03-13 19:33:00,56.1,25.1,30.29,WNW,293,0.0,2.0,30,0.00,,---,0.00,VWS V14.01,2013-03-14 00:33:00,
2013-03-13 19:38:00,55.8,25.6,30.29,WNW,293,0.0,2.0,31,0.00,,---,0.00,VWS V14.01,2013-03-14 00:38:00,
2013-03-13 19:43:00,55.4,25.3,30.29,NW,316,0.0,2.0,31,0.00,,---,0.00,VWS V14.01,2013-03-14 00:43:00,
2013-03-13 19:48:00,55.1,25.8,30.29,NW,316,0.0,2.0,32,0.00,,---,0.00,VWS V14.01,2013-03-14 00:48:00,
2013-03-13 19:53:00,54.7,25.4,30.29,WNW,300,0.0,2.0,32,0.00,,---,0.00,VWS V14.01,2013-03-14 00:53:00,
2013-03-13 19:58:00,54.5,25.3,30.29,WNW,285,0.0,2.0,32,0.00,,---,0.00,VWS V14.01,2013-03-14 00:58:00,
2013-03-13 20:00:00,54.4,25.2,30.29,WNW,285,0.0,2.0,32,0.00,,---,0.00,VWS V14.01,2013-03-14 01:00:00,
2013-03-13 20:03:00,54.2,25.7,30.29,West,269,0.0,1.0,33,0.00,,---,0.00,VWS V14.01,2013-03-14 01:03:00,
2013-03-13 20:08:00,53.9,25.5,30.29,WNW,290,0.0,1.0,33,0.00,,---,0.00,VWS V14.01,2013-03-14 01:08:00,
2013-03-13 20:13:00,53.6,25.2,30.29,WNW,291,0.0,1.0,33,0.00,,---,0.00,VWS V14.01,2013-03-14 01:13:00,
2013-03-13 20:18:00,53.4,25.8,30.29,NNW,333,1.0,1.0,34,0.00,,---,0.00,VWS V14.01,2013-03-14 01:18:00,
2013-03-13 20:23:00,53.2,25.6,30.29,NNE,12,1.0,1.0,34,0.00,,---,0.00,VWS V14.01,2013-03-14 01:23:00,
2013-03-13 20:28:00,53.0,25.4,30.29,West,266,0.0,1.0,34,0.00,,---,0.00,VWS V14.01,2013-03-14 01:28:00,
2013-03-13 20:30:00,53.0,25.4,30.30,NW,312,0.0,1.0,34,0.00,,---,0.00,VWS V14.01,2013-03-14 01:30:00,
2013-03-13 20:33:00,53.0,25.4,30.29,NNW,335,0.0,1.0,34,0.00,,---,0.00,VWS V14.01,2013-03-14 01:33:00,
2013-03-13 20:38:00,52.8,25.2,30.30,West,259,0.0,1.0,34,0.00,,---,0.00,VWS V14.01,2013-03-14 01:38:00,
2013-03-13 20:43:00,52.7,25.1,30.29,WNW,294,0.0,1.0,34,0.00,,---,0.00,VWS V14.01,2013-03-14 01:43:00,
2013-03-13 20:48:00,52.5,25.7,30.30,North,354,2.0,3.0,35,0.00,,---,0.00,VWS V14.01,2013-03-14 01:48:00,
2013-03-13 20:53:00,52.5,25.7,30.30,NW,318,0.0,3.0,35,0.00,,---,0.00,VWS V14.01,2013-03-14 01:53:00,
2013-03-13 20:58:00,52.5,25.7,30.30,West,281,0.0,4.0,35,0.00,,---,0.00,VWS V14.01,2013-03-14 01:58:00,
2013-03-13 21:00:00,52.5,25.7,30.30,NW,316,0.0,4.0,35,0.00,,---,0.00,VWS V14.01,2013-03-14 02:00:00,
2013-03-13 21:03:00,52.4,25.6,30.30,NW,309,0.0,2.0,35,0.00,,---,0.00,VWS V14.01,2013-03-14 02:03:00,
2013-03-13 21:08:00,52.3,26.2,30.31,North,353,1.0,2.0,36,0.00,,---,0.00,VWS V14.01,2013-03-14 02:08:00,
2013-03-13 21:13:00,52.2,26.1,30.31,North,357,0.0,2.0,36,0.00,,---,0.00,VWS V14.01,2013-03-14 02:13:00,
2013-03-13 21:18:00,52.0,25.9,30.31,West,278,0.0,2.0,36,0.00,,---,0.00,VWS V14.01,2013-03-14 02:18:00,
2013-03-13 21:23:00,51.8,25.7,30.31,NW,304,0.0,2.0,36,0.00,,---,0.00,VWS V14.01,2013-03-14 02:23:00,
2013-03-13 21:27:00,51.7,25.6,30.32,WNW,293,0.0,3.0,36,0.00,,---,0.00,VWS V14.01,2013-03-14 02:27:00,
2013-03-13 21:30:00,51.7,25.6,30.32,WSW,246,0.0,3.0,36,0.00,,---,0.00,VWS V14.01,2013-03-14 02:30:00,
2013-03-13 21:32:00,51.7,25.6,30.32,NNW,332,0.0,3.0,36,0.00,,---,0.00,VWS V14.01,2013-03-14 02:32:00,
2013-03-13 21:37:00,51.7,25.6,30.32,West,278,1.0,3.0,36,0.00,,---,0.00,VWS V14.01,2013-03-14 02:37:00,
2013-03-13 21:42:00,51.7,25.0,30.32,NNW,335,2.0,4.0,35,0.00,,---,0.00,VWS V14.01,2013-03-14 02:42:00,
2013-03-13 21:47:00,51.8,25.7,30.33,West,272,0.0,4.0,36,0.00,,---,0.00,VWS V14.01,2013-03-14 02:47:00,
2013-03-13 21:52:00,51.6,25.5,30.33,West,262,0.0,4.0,36,0.00,,---,0.00,VWS V14.01,2013-03-14 02:52:00,
2013-03-13 21:57:00,51.4,25.4,30.33,WNW,302,0.0,4.0,36,0.00,,---,0.00,VWS V14.01,2013-03-14 02:57:00,
2013-03-13 22:00:00,51.4,24.7,30.33,North,4,0.0,4.0,35,0.00,,---,0.00,VWS V14.01,2013-03-14 03:00:00,
2013-03-13 22:02:00,51.5,24.8,30.33,East,91,0.0,6.0,35,0.00,,---,0.00,VWS V14.01,2013-03-14 03:02:00,
2013-03-13 22:07:00,51.6,24.2,30.33,NW,304,0.0,7.0,34,0.00,,---,0.00,VWS V14.01,2013-03-14 03:07:00,
2013-03-13 22:12:00,51.7,24.3,30.33,North,1,0.0,7.0,34,0.00,,---,0.00,VWS V14.01,2013-03-14 03:12:00,
2013-03-13 22:17:00,51.6,24.9,30.33,SW,228,0.0,7.0,35,0.00,,---,0.00,VWS V14.01,2013-03-14 03:17:00,
2013-03-13 22:23:00,51.4,24.0,30.33,North,355,1.0,7.0,34,0.00,,---,0.00,VWS V14.01,2013-03-14 03:23:00,
2013-03-13 22:28:00,51.3,23.9,30.33,WNW,286,0.0,7.0,34,0.00,,---,0.00,VWS V14.01,2013-03-14 03:28:00,
2013-03-13 22:30:00,51.3,24.6,30.33,NW,315,1.0,7.0,35,0.00,,---,0.00,VWS V14.01,2013-03-14 03:30:00,
2013-03-13 22:33:00,51.3,23.9,30.33,NNE,22,0.0,1.0,34,0.00,,---,0.00,VWS V14.01,2013-03-14 03:33:00,
2013-03-13 22:38:00,51.2,23.8,30.33,NW,307,0.0,4.0,34,0.00,,---,0.00,VWS V14.01,2013-03-14 03:38:00,
2013-03-13 22:43:00,51.1,23.7,30.34,West,277,2.0,4.0,34,0.00,,---,0.00,VWS V14.01,2013-03-14 03:43:00,
2013-03-13 22:48:00,50.9,24.2,30.34,NW,319,0.0,4.0,35,0.00,,---,0.00,VWS V14.01,2013-03-14 03:48:00,
2013-03-13 22:53:00,50.5,23.9,30.34,WNW,283,2.0,4.0,35,0.00,,---,0.00,VWS V14.01,2013-03-14 03:53:00,
2013-03-13 22:58:00,50.3,24.4,30.35,WNW,284,0.0,4.0,36,0.00,,---,0.00,VWS V14.01,2013-03-14 03:58:00,
2013-03-13 23:00:00,50.2,24.3,30.35,NW,319,1.0,2.0,36,0.00,,---,0.00,VWS V14.01,2013-03-14 04:00:00,
2013-03-13 23:05:00,50.1,24.9,30.35,NNW,328,1.0,3.0,37,0.00,,---,0.00,VWS V14.01,2013-03-14 04:05:00,
2013-03-13 23:10:00,49.9,25.3,30.35,West,281,0.0,3.0,38,0.00,,---,0.00,VWS V14.01,2013-03-14 04:10:00,
2013-03-13 23:15:00,49.6,25.0,30.35,WNW,298,0.0,3.0,38,0.00,,---,0.00,VWS V14.01,2013-03-14 04:15:00,
2013-03-13 23:20:00,49.6,25.7,30.35,WNW,283,1.0,4.0,39,0.00,,---,0.00,VWS V14.01,2013-03-14 04:20:00,
2013-03-13 23:25:00,49.4,25.5,30.35,NW,316,0.0,4.0,39,0.00,,---,0.00,VWS V14.01,2013-03-14 04:25:00,
2013-03-13 23:30:00,49.2,25.9,30.35,West,277,1.0,2.0,40,0.00,,---,0.00,VWS V14.01,2013-03-14 04:30:00,
2013-03-13 23:35:00,49.0,25.8,30.36,WNW,283,0.0,3.0,40,0.00,,---,0.00,VWS V14.01,2013-03-14 04:35:00,
2013-03-13 23:40:00,48.7,26.1,30.36,West,259,0.0,3.0,41,0.00,,---,0.00,VWS V14.01,2013-03-14 04:40:00,
2013-03-13 23:45:00,48.3,26.3,30.36,WSW,258,0.0,3.0,42,0.00,,---,0.00,VWS V14.01,2013-03-14 04:45:00,
2013-03-13 23:50:00,47.8,26.4,30.36,WSW,250,0.0,3.0,43,0.00,,---,0.00,VWS V14.01,2013-03-14 04:50:00,
2013-03-13 23:55:00,47.4,26.6,30.36,WSW,245,0.0,3.0,44,0.00,,---,0.00,VWS V14.01,2013-03-14 04:55:00,